Wetbulb
56.42 56.79 56.37 57.58 57.85 57.58 56.48 55.74 55.83 56.58 55.71 56.40 56.36 56.15 56.42 56.81 57.03 57.47 57.68 60.29 61.15 61.70 62.66 64.62 64.56 64.61 65.58 67.13 69.02 69.80 71.03 71.80 72.88 73.43 73.19 72.50 72.39 72.49 72.44 72.46 73.41 73.52 73.29
55.97 55.87 55.78 55.96 56.40 56.35 55.53 55.15 55.52 55.31 54.64 54.94 55.09 55.75 55.87 56.33 56.42 56.31 56.09 57.22 59.71 60.40 61.65 62.82 62.94 64.52 65.73 66.17 67.76 69.56 70.40 71.58 72.76 73.13 72.91 72.61 72.40 72.52 72.39 72.82 72.75 72.79 72.86
56.02 55.59 54.60 54.33 55.18 55.30 54.78 55.06 54.77 54.64 53.96 54.41 53.95 54.53 54.88 55.52 55.35 55.49 55.84 56.22 56.68 59.06 60.55 61.44 63.27 64.08 64.51 66.24 67.11 67.71 70.15 70.69 71.70 72.52 72.64 72.65 72.26 71.71 71.96 72.33 72.71 72.79 72.48
57.14 55.28 54.44 53.97 54.64 54.12 53.81 53.33 53.49 52.79 52.82 52.61 52.62 53.15 53.73 54.53 54.69 55.15 55.44 55.80 56.58 56.51 57.73 60.72 61.89 62.57 64.66 65.35 66.52 67.58 69.47 70.44 71.30 72.07 72.09 72.61 71.78 71.47 71.38 71.66 72.08 72.62 72.53
56.93 55.28 53.98 53.48 54.21 52.92 52.26 52.13 52.35 51.37 50.76 51.46 51.98 53.35 53.75 53.59 53.98 54.45 54.46 55.09 55.28 56.22 57.03 58.63 60.59 62.06 62.84 64.91 66.78 68.35 69.22 70.53 70.97 71.58 72.46 71.90 71.78 71.34 71.00 70.91 70.81 70.88 70.88
56.37 55.22 53.44 53.31 53.12 51.67 50.81 51.00 50.64 51.50 51.32 51.34 51.48 51.81 52.27 53.10 53.72 53.77 53.93 54.22 54.86 55.56 56.40 57.33 59.11 58.75 62.48 64.45 66.15 67.95 69.74 70.66 71.65 72.06 71.36 71.00 70.74 70.21 69.57 69.08 68.86 68.68 68.61
55.80 53.87 52.71 51.89 52.00 50.40 50.08 50.41 50.57 50.11 49.98 51.59 49.82 49.91 51.61 52.98 53.00 52.69 53.46 54.73 54.58 55.42 56.09 57.50 57.77 59.74 60.95 63.43 64.89 66.22 68.63 69.82 72.00 71.07 69.36 67.98 68.47 68.23 67.98 67.85 68.24 68.63 69.19
54.49 53.74 51.77 51.50 51.09 49.79 49.94 49.77 50.03 49.72 49.17 51.69 49.59 49.08 47.21 49.29 52.17 53.16 54.08 54.27 54.39 55.00 55.52 56.69 58.53 60.68 61.46 62.19 64.17 65.79 67.75 69.44 70.19 70.03 67.19 66.48 66.83 67.22 67.35 67.55 67.34 67.14 67.68
53.43 52.65 52.29 51.44 50.61 49.91 48.92 48.90 50.67 49.61 47.79 49.80 49.99 48.46 46.68 45.50 48.17 52.23 53.02 53.81 54.14 53.79 55.29 55.83 59.35 60.26 61.33 60.62 62.35 65.95 67.84 68.89 68.69 67.93 67.01 66.84 67.19 67.19 66.82 66.86 66.28 65.68 65.96
51.77 52.40 52.16 51.22 50.43 49.41 48.69 49.29 51.25 49.32 49.18 47.31 48.26 50.30 51.56 50.43 46.41 45.90 50.87 51.79 53.00 53.00 54.33 55.80 57.18 59.44 59.75 59.45 63.55 65.07 66.06 66.53 67.35 67.22 67.36 67.25 66.72 65.89 65.20 64.85 64.78 64.74 64.99
52.19 51.67 51.19 50.59 50.04 48.73 48.63 48.74 49.88 48.15 48.18 47.04 46.45 47.67 50.23 50.66 50.67 47.52 45.51 47.70 50.66 53.16 54.50 55.12 58.57 59.13 59.01 59.74 60.36 61.14 62.07 62.86 65.68 65.30 64.92 64.99 64.41 64.09 63.78 63.43 63.59 63.93 64.07
50.58 50.14 49.95 49.88 49.58 48.56 49.09 49.71 48.44 47.36 47.15 46.89 47.98 49.56 49.37 48.09 47.27 47.24 46.84 46.94 47.41 51.39 53.27 55.97 58.07 57.17 57.91 58.37 60.52 60.82 60.06 59.70 59.71 59.79 60.03 60.37 60.75 60.88 61.01 61.11 61.31 61.83 62.70
47.79 48.19 48.69 48.68 48.28 49.44 50.63 49.90 47.83 47.45 47.49 47.79 49.25 48.89 49.76 49.55 49.66 48.55 48.19 47.72 47.15 50.17 53.94 57.10 55.40 55.76 56.61 57.27 58.20 58.25 58.49 57.55 57.14 56.64 57.11 57.34 57.51 57.46 57.57 57.56 57.88 58.10 58.85
47.11 47.86 48.38 47.91 49.04 49.38 48.83 48.86 47.97 47.70 47.99 47.45 48.19 49.17 48.55 48.50 49.37 49.33 48.28 46.71 45.95 48.65 52.12 53.27 54.88 53.89 55.20 56.53 56.85 56.55 55.05 55.43 54.95 54.52 54.52 54.70 54.91 55.04 54.67 55.25 55.18 54.71 54.85
47.27 48.67 47.39 47.20 47.78 47.79 49.50 48.04 46.68 48.03 48.81 48.27 48.14 48.45 47.90 48.30 49.30 49.74 50.09 49.61 48.19 45.55 46.84 53.78 52.18 53.17 54.16 53.94 54.19 53.33 53.36 54.74 54.42 53.55 53.29 52.83 52.98 52.92 52.77 52.71 52.90 53.00 53.31
47.02 47.02 46.86 47.11 47.02 47.44 48.12 48.00 47.83 48.78 48.55 48.57 48.72 48.52 48.74 49.22 49.31 49.40 48.95 49.46 48.95 48.50 47.43 52.63 51.07 51.94 52.91 53.11 53.28 51.56 52.27 53.70 53.70 52.93 52.69 51.98 51.54 51.25 51.06 50.71 50.32 50.90 51.63
46.61 46.73 46.97 46.93 46.98 47.79 47.82 48.15 48.43 48.32 47.79 47.57 48.15 48.37 47.92 48.46 47.22 47.65 47.98 48.01 47.90 48.30 48.16 50.89 51.02 50.16 49.38 48.68 49.14 49.87 50.66 49.91 50.60 51.94 51.89 51.50 50.26 49.87 49.52 48.93 48.53 48.76 49.42
46.50 46.59 47.13 47.14 47.64 47.85 46.72 46.89 48.08 47.42 47.11 46.57 46.93 47.18 47.20 47.62 45.83 47.09 46.97 46.93 46.62 46.87 48.34 47.29 48.47 48.32 47.94 48.57 48.48 48.01 48.77 49.48 48.71 50.55 50.24 49.96 50.38 48.90 48.47 47.66 47.30 47.27 47.23
46.68 46.75 47.03 47.48 47.80 47.08 45.96 45.99 48.17 47.42 47.37 47.27 47.36 47.25 46.63 46.45 45.76 46.11 47.00 45.80 47.00 47.09 48.47 48.54 47.00 48.77 48.16 48.26 48.07 47.40 46.66 46.16 47.75 48.93 48.39 48.80 48.96 49.18 49.07 47.25 46.68 46.30 45.75
46.50 46.79 47.12 47.48 46.91 46.27 45.83 45.97 47.28 47.46 47.52 47.82 46.10 44.78 44.54 45.18 45.62 45.61 46.36 45.80 47.47 46.82 47.89 48.19 46.84 46.66 47.11 48.21 47.83 44.71 42.59 44.03 43.39 44.61 46.37 46.76 47.31 48.23 48.23 48.61 48.09 47.28 46.11
46.61 46.65 47.27 46.29 45.15 45.47 45.45 46.15 46.26 47.16 46.32 45.63 43.61 43.09 43.83 46.99 47.42 46.93 46.15 46.54 47.25 46.26 47.05 47.00 46.26 46.40 46.19 46.71 45.59 44.88 42.41 43.16 42.87 43.23 42.71 43.15 44.08 44.64 45.57 46.77 47.64 47.94 46.73
46.09 46.61 45.21 44.62 43.79 43.77 44.98 46.06 47.85 46.57 47.27 42.97 42.15 42.75 43.24 44.94 45.67 45.84 46.77 48.49 48.83 47.15 45.77 47.52 46.62 45.74 46.42 46.49 45.57 44.25 43.26 43.53 40.76 43.61 41.85 41.03 43.78 43.30 44.96 45.07 45.36 44.97 44.62
45.28 47.36 45.76 45.05 43.41 43.87 44.65 43.97 46.84 47.04 45.91 43.17 43.08 42.80 43.03 44.15 44.99 44.50 45.26 47.48 48.15 48.52 48.59 47.87 47.13 47.09 46.19 47.51 46.48 44.87 44.96 42.54 40.75 42.17 42.17 39.70 42.45 41.25 43.48 45.31 45.33 44.87 44.51
44.31 45.47 46.86 46.38 45.34 44.99 44.42 43.48 44.77 48.74 45.51 44.32 43.64 43.08 43.72 44.49 45.49 45.35 45.67 47.02 47.97 48.74 48.30 49.12 48.97 48.23 48.21 48.95 48.50 48.17 44.31 42.80 42.80 43.34 43.57 38.38 41.76 40.94 42.75 44.18 45.26 43.86 43.12
42.10 42.93 46.39 46.30 45.35 44.36 43.67 42.84 44.26 47.11 45.87 45.22 43.90 43.72 44.89 44.11 43.81 43.17 46.21 46.39 45.70 45.72 47.38 46.66 45.72 45.07 44.76 46.33 47.22 45.69 43.51 43.98 42.63 41.47 42.83 41.00 41.11 41.21 40.91 40.06 41.01 41.99 41.96
42.56 44.00 43.88 43.89 44.33 43.55 42.93 42.13 43.38 47.47 44.60 43.83 43.36 43.71 44.27 43.58 41.76 42.17 47.36 46.66 44.31 44.47 45.27 45.04 45.45 45.22 45.72 45.78 46.39 47.45 47.59 45.33 43.07 42.49 43.44 41.08 41.50 41.85 37.32 42.26 41.60 41.68 41.77
MSLP
1019.65 1019.60 1019.64 1019.58 1019.50 1019.36 1019.18 1018.97 1018.69 1018.30 1017.93 1017.49 1017.06 1016.62 1016.11 1015.67 1015.29 1014.80 1014.27 1013.80 1013.33 1012.88 1012.34 1011.82 1011.41 1010.99 1010.63 1010.26 1010.00 1009.72 1009.40 1009.16 1008.91 1008.91 1009.20 1009.48 1009.85 1010.13 1010.38 1010.86 1011.21 1011.31 1011.58
1019.84 1019.89 1019.87 1019.78 1019.62 1019.50 1019.24 1019.02 1018.68 1018.31 1017.85 1017.32 1016.77 1016.29 1015.80 1015.27 1014.72 1014.22 1013.72 1013.31 1012.90 1012.41 1011.88 1011.32 1010.89 1010.41 1010.03 1009.71 1009.35 1009.01 1008.63 1008.41 1008.10 1007.96 1008.42 1008.57 1009.06 1009.53 1009.69 1010.12 1010.56 1010.92 1011.18
1019.87 1019.99 1020.09 1020.02 1019.87 1019.64 1019.38 1019.07 1018.63 1018.22 1017.76 1017.15 1016.69 1016.14 1015.50 1014.83 1014.23 1013.69 1013.26 1012.87 1012.44 1012.04 1011.53 1011.01 1010.52 1010.01 1009.54 1009.10 1008.72 1008.33 1007.92 1007.59 1007.41 1007.19 1007.32 1007.84 1008.29 1008.62 1008.86 1009.33 1009.81 1010.13 1010.55
1019.85 1019.91 1019.93 1019.97 1019.86 1019.68 1019.53 1019.22 1018.73 1018.26 1017.76 1017.16 1016.58 1015.98 1015.33 1014.66 1013.89 1013.31 1012.92 1012.56 1012.17 1011.71 1011.19 1010.69 1010.18 1009.69 1009.20 1008.63 1008.00 1007.56 1007.17 1006.85 1006.58 1006.42 1006.37 1006.78 1007.42 1007.80 1008.08 1008.47 1008.87 1009.35 1009.81
1019.82 1019.92 1020.05 1020.00 1019.91 1019.79 1019.59 1019.28 1018.85 1018.44 1017.86 1017.24 1016.60 1015.81 1015.20 1014.39 1013.61 1012.94 1012.62 1012.17 1011.72 1011.20 1010.76 1010.31 1009.80 1009.29 1008.74 1008.17 1007.49 1006.82 1006.35 1006.00 1005.73 1005.62 1005.72 1006.13 1006.41 1006.72 1007.20 1007.77 1008.13 1008.51 1009.01
1019.82 1019.99 1020.13 1020.08 1019.97 1019.89 1019.57 1019.15 1018.77 1018.24 1017.73 1017.10 1016.55 1015.82 1015.04 1014.02 1013.25 1012.91 1012.37 1011.69 1011.22 1010.79 1010.40 1010.00 1009.48 1008.84 1008.14 1007.47 1006.85 1006.18 1005.60 1005.04 1004.76 1004.62 1004.82 1005.23 1005.75 1006.45 1006.80 1007.22 1007.48 1007.87 1008.18
1019.94 1019.99 1020.10 1020.05 1019.94 1019.90 1019.58 1019.11 1018.69 1018.16 1017.50 1016.87 1016.13 1015.31 1014.38 1013.52 1012.82 1012.67 1012.03 1011.45 1010.90 1010.42 1010.06 1009.55 1009.08 1008.38 1007.68 1006.89 1006.16 1005.62 1005.03 1004.35 1003.68 1003.79 1004.41 1004.93 1005.58 1006.21 1006.85 1006.98 1007.38 1007.58 1007.95
1019.93 1019.96 1020.11 1019.99 1019.90 1019.69 1019.32 1018.99 1018.65 1018.03 1017.54 1016.89 1016.30 1015.50 1014.22 1013.34 1012.70 1012.27 1011.66 1011.27 1010.80 1010.50 1009.94 1009.25 1008.77 1007.87 1007.25 1006.60 1005.68 1004.93 1004.22 1003.40 1003.61 1003.88 1004.50 1004.93 1005.59 1006.13 1006.62 1006.88 1007.29 1007.52 1007.48
1020.08 1020.03 1019.93 1019.91 1019.78 1019.62 1019.40 1019.06 1018.57 1018.25 1017.65 1016.98 1016.69 1016.30 1014.81 1014.03 1013.42 1011.94 1011.38 1011.06 1010.78 1010.50 1009.89 1009.28 1008.40 1007.68 1006.93 1006.32 1005.33 1004.38 1003.34 1003.35 1003.69 1004.12 1004.47 1004.92 1005.59 1006.08 1006.50 1006.92 1007.12 1007.39 1007.24
1020.10 1019.89 1019.87 1019.77 1019.58 1019.42 1019.20 1018.93 1018.45 1018.23 1017.89 1017.27 1016.66 1015.93 1015.53 1014.94 1013.98 1012.57 1011.26 1011.10 1011.05 1010.44 1009.87 1009.03 1008.20 1007.59 1006.99 1006.19 1005.04 1004.03 1003.72 1003.58 1003.77 1004.11 1004.35 1004.97 1005.68 1006.23 1006.75 1007.05 1007.22 1007.34 1007.16
1020.00 1019.94 1019.82 1019.56 1019.28 1019.16 1018.93 1018.62 1018.29 1018.10 1017.92 1017.61 1017.00 1016.18 1015.23 1014.59 1014.10 1013.87 1012.27 1011.28 1010.96 1010.38 1009.74 1009.04 1008.16 1007.77 1007.22 1006.50 1005.69 1005.05 1004.71 1004.55 1003.16 1004.16 1004.68 1005.40 1006.08 1006.67 1007.16 1007.40 1007.52 1007.53 1007.37
1020.11 1019.98 1019.75 1019.44 1019.28 1019.04 1018.63 1018.33 1018.14 1017.93 1017.65 1017.34 1016.82 1016.05 1015.33 1014.85 1014.50 1014.19 1013.18 1012.24 1011.50 1010.13 1009.49 1008.85 1008.39 1008.09 1007.65 1007.17 1006.65 1006.16 1006.15 1006.28 1005.88 1004.71 1005.27 1006.43 1006.94 1007.46 1007.78 1008.01 1007.93 1007.77 1007.68
1020.36 1020.00 1019.77 1019.47 1019.20 1018.74 1018.38 1018.23 1017.88 1017.53 1017.25 1016.93 1016.44 1015.92 1015.35 1014.95 1014.76 1014.33 1013.64 1012.73 1011.84 1010.59 1009.56 1009.00 1008.92 1008.56 1008.14 1007.73 1007.57 1007.52 1007.48 1007.41 1006.70 1007.01 1006.72 1007.50 1007.98 1008.34 1008.50 1008.57 1008.52 1008.62 1008.43
1020.40 1020.01 1019.74 1019.40 1019.00 1018.62 1018.20 1017.90 1017.53 1017.21 1016.89 1016.54 1016.07 1015.66 1015.21 1014.82 1014.65 1014.34 1013.85 1013.17 1011.83 1010.90 1009.90 1009.46 1009.51 1009.18 1008.59 1008.48 1008.50 1008.57 1008.72 1008.75 1008.46 1008.51 1008.29 1008.74 1008.96 1009.17 1009.21 1009.12 1009.17 1009.42 1009.30
1020.19 1019.81 1019.55 1019.11 1018.73 1018.45 1018.01 1017.71 1017.35 1016.95 1016.63 1016.24 1015.79 1015.42 1015.09 1014.71 1014.39 1014.08 1013.58 1012.85 1012.21 1011.05 1010.34 1009.63 1009.85 1009.97 1009.64 1009.43 1009.63 1009.59 1009.53 1009.44 1009.36 1009.43 1009.36 1009.70 1009.72 1009.62 1010.00 1010.10 1009.83 1010.13 1010.03
1019.85 1019.49 1019.16 1018.91 1018.65 1018.25 1017.88 1017.54 1017.14 1016.84 1016.53 1016.14 1015.69 1015.34 1015.02 1014.68 1014.33 1014.00 1013.46 1012.90 1012.38 1011.53 1010.65 1010.28 1010.24 1010.46 1010.34 1010.22 1010.51 1010.51 1010.49 1010.35 1010.22 1010.30 1010.45 1010.73 1010.59 1010.60 1010.88 1010.73 1010.90 1010.75 1010.54
1019.41 1019.15 1018.86 1018.65 1018.45 1018.09 1017.74 1017.47 1017.17 1016.92 1016.59 1016.26 1015.99 1015.55 1015.20 1014.84 1014.48 1014.08 1013.53 1013.12 1012.44 1011.89 1011.34 1010.75 1010.76 1011.15 1011.27 1011.41 1011.57 1011.43 1011.64 1011.43 1011.41 1011.36 1011.32 1011.50 1011.52 1011.56 1011.23 1011.61 1011.59 1011.41 1011.10
1019.06 1018.86 1018.57 1018.39 1018.16 1017.94 1017.62 1017.48 1017.23 1017.01 1016.73 1016.42 1016.14 1015.79 1015.46 1015.11 1014.61 1014.17 1013.66 1013.12 1012.55 1011.93 1011.64 1011.24 1011.40 1011.52 1011.98 1012.17 1011.92 1012.19 1012.29 1012.32 1012.25 1012.30 1012.29 1011.99 1011.85 1011.75 1011.85 1011.86 1011.99 1011.71 1011.58
1018.90 1018.58 1018.36 1018.14 1018.01 1017.86 1017.60 1017.46 1017.21 1016.98 1016.74 1016.54 1016.34 1016.00 1015.65 1015.23 1014.74 1014.26 1013.70 1013.30 1012.70 1012.03 1011.54 1011.37 1011.62 1011.84 1012.43 1012.67 1012.83 1012.74 1013.00 1012.86 1012.82 1012.89 1012.83 1012.76 1012.29 1012.10 1012.19 1012.50 1012.54 1012.54 1012.60
1018.75 1018.45 1018.22 1018.15 1018.02 1017.83 1017.63 1017.48 1017.25 1016.99 1016.73 1016.58 1016.55 1016.32 1015.92 1015.45 1014.86 1014.38 1013.85 1013.37 1012.85 1012.39 1011.84 1011.74 1012.10 1012.24 1012.71 1013.08 1013.13 1013.41 1013.71 1013.95 1013.89 1013.85 1013.68 1013.59 1013.39 1013.21 1013.13 1012.94 1012.87 1012.84 1012.95
1018.72 1018.48 1018.38 1018.29 1018.13 1017.89 1017.64 1017.36 1017.07 1016.88 1016.72 1016.63 1016.61 1016.38 1016.01 1015.40 1014.88 1014.46 1013.98 1013.51 1013.04 1012.68 1012.18 1012.07 1012.35 1012.60 1013.00 1013.25 1013.47 1013.93 1014.36 1014.60 1014.69 1014.73 1014.56 1014.38 1014.10 1013.92 1013.88 1013.62 1013.52 1013.34 1013.18
1018.82 1018.76 1018.60 1018.41 1018.19 1017.96 1017.63 1017.14 1016.77 1016.66 1016.59 1016.81 1016.69 1016.37 1016.01 1015.40 1014.81 1014.33 1014.00 1013.56 1013.16 1012.81 1012.42 1012.25 1012.44 1012.68 1013.12 1013.48 1013.84 1014.19 1014.42 1014.22 1014.72 1015.12 1014.97 1014.98 1014.80 1014.62 1014.61 1014.56 1014.42 1013.94 1013.39
1019.08 1018.81 1018.59 1018.39 1018.25 1017.99 1017.59 1017.06 1016.75 1016.67 1016.75 1016.85 1016.71 1016.44 1015.95 1015.44 1014.89 1014.26 1013.78 1013.45 1013.16 1012.93 1012.65 1012.56 1012.44 1012.91 1013.32 1013.56 1014.03 1014.41 1014.50 1014.79 1015.15 1015.44 1015.33 1015.48 1015.48 1015.48 1015.41 1015.07 1014.71 1014.15 1014.00
1019.35 1019.08 1018.74 1018.57 1018.36 1018.11 1017.72 1017.38 1016.92 1016.73 1016.77 1016.77 1016.63 1016.40 1016.01 1015.40 1014.92 1014.34 1013.69 1013.23 1013.07 1012.94 1012.76 1012.64 1012.84 1013.22 1013.44 1013.89 1014.18 1014.42 1014.92 1015.31 1015.53 1015.58 1015.63 1016.13 1016.27 1015.97 1015.76 1015.50 1015.22 1015.12 1015.06
1019.65 1019.41 1019.11 1018.74 1018.50 1018.23 1018.00 1017.62 1017.02 1016.77 1016.81 1016.75 1016.59 1016.30 1015.94 1015.50 1014.92 1014.25 1013.63 1013.37 1013.47 1013.55 1013.33 1013.27 1013.53 1013.74 1014.02 1014.22 1014.41 1014.63 1015.13 1015.24 1015.63 1016.06 1016.14 1016.33 1016.63 1016.50 1016.37 1016.16 1016.00 1015.92 1015.67
1020.10 1019.75 1019.31 1019.08 1018.74 1018.51 1018.17 1017.78 1017.34 1017.04 1016.93 1016.87 1016.62 1016.31 1016.02 1015.58 1014.89 1014.23 1013.80 1013.82 1013.95 1014.19 1014.11 1014.13 1014.39 1014.62 1014.72 1014.88 1014.85 1014.88 1015.15 1015.32 1015.56 1015.97 1016.28 1016.40 1016.61 1016.70 1016.72 1017.01 1016.81 1016.55 1016.12
Wind_Speed
4 3 4 3 3 3 4 6 6 5 6 7 8 8 9 9 9 6 6 19 21 23 23 21 21 23 22 20 19 19 18 18 19 22 22 21 22 21 21 21 21 22 21
4 3 4 4 4 4 5 5 6 6 6 7 8 8 10 10 11 11 8 9 20 21 22 22 24 23 22 23 21 20 20 19 16 18 22 21 21 21 20 20 20 20 20
4 4 3 4 3 4 6 6 7 6 7 7 9 9 10 11 11 12 10 8 11 18 21 22 22 22 23 23 23 23 21 20 19 18 21 21 21 20 18 19 19 19 20
2 2 2 3 4 4 4 5 6 6 7 8 8 8 8 10 13 13 10 8 8 9 13 19 21 22 22 26 26 25 23 22 20 19 20 21 20 17 16 17 18 18 19
2 2 2 3 4 4 5 5 6 6 7 8 8 8 9 10 12 11 12 11 11 10 8 14 20 21 23 25 26 26 24 23 21 17 17 19 17 14 14 12 10 10 11
3 2 2 4 4 4 5 6 7 7 7 8 9 9 8 9 9 8 10 10 10 11 9 10 9 11 21 24 24 24 24 24 22 21 19 18 16 16 15 14 13 13 15
3 3 3 4 4 5 6 7 5 9 8 6 5 7 8 9 9 7 7 9 10 9 9 9 7 8 9 21 24 24 24 25 19 17 15 16 16 13 13 11 11 12 14
5 5 5 4 5 5 7 7 7 4 8 7 5 8 5 6 3 9 8 7 9 7 10 10 11 10 8 8 15 24 24 15 12 16 12 12 12 12 12 10 7 5 5
5 5 5 4 5 4 5 6 6 8 7 8 9 4 4 3 9 4 10 6 7 7 8 10 11 10 10 9 15 16 16 13 15 16 16 15 14 13 12 11 10 7 7
6 6 6 5 5 4 5 6 6 6 6 8 8 5 7 5 4 6 7 6 6 10 11 8 10 8 9 8 11 10 9 14 18 19 21 19 18 16 13 11 9 9 9
5 7 7 6 5 5 5 6 7 7 6 5 6 6 7 5 4 4 9 10 10 8 7 9 7 5 7 8 6 19 26 17 12 17 21 20 18 15 14 12 12 10 10
5 8 7 6 5 6 6 5 6 6 6 6 6 6 5 3 5 5 6 11 11 8 10 6 5 4 4 6 12 21 20 20 16 26 25 20 18 16 14 14 13 14 13
4 7 6 7 5 6 6 5 5 6 6 6 7 5 5 4 4 6 7 9 7 9 4 3 5 4 4 5 9 18 21 21 23 20 23 18 17 16 16 16 16 14 15
4 6 6 6 7 7 6 5 5 5 5 6 8 6 5 5 4 5 6 7 10 6 4 4 4 6 5 5 15 19 12 20 20 20 21 20 17 18 17 18 17 14 14
5 5 5 6 6 7 6 6 5 5 6 5 6 6 5 4 6 5 6 6 5 4 5 2 2 5 4 7 12 8 9 18 20 20 20 19 20 21 20 19 19 15 14
4 6 6 6 7 6 5 5 4 5 6 6 5 6 5 4 5 4 5 6 5 5 3 4 4 5 6 8 14 11 13 16 21 20 19 18 19 20 19 19 17 16 15
5 6 6 6 5 5 5 5 6 6 8 7 6 6 6 6 5 5 5 5 5 4 4 1 4 6 7 10 9 9 8 9 10 21 20 17 17 17 20 18 18 18 18
5 5 6 5 4 4 4 5 6 5 6 7 7 7 8 6 7 6 5 7 6 6 4 7 2 4 7 7 7 8 8 8 9 19 19 19 17 19 18 19 19 20 21
5 5 4 4 4 4 5 4 4 4 4 4 6 7 8 8 8 8 7 8 6 6 5 4 2 3 4 3 5 8 7 8 7 16 17 19 19 19 16 16 16 17 17
5 5 4 4 3 4 5 5 6 5 5 4 6 7 8 8 9 10 8 8 7 7 4 5 4 4 3 1 4 5 6 6 6 8 13 15 15 18 17 15 14 14 11
4 4 4 4 5 4 5 7 6 5 3 5 5 7 8 11 14 12 6 6 7 5 3 5 4 4 3 2 2 3 4 4 7 6 6 7 7 7 9 14 14 16 16
5 4 5 5 6 5 12 13 9 4 2 4 6 7 8 10 12 14 11 10 6 4 4 3 4 5 4 4 3 2 1 1 3 6 4 7 6 7 7 7 15 17 18
4 4 3 4 5 6 13 14 12 3 3 3 5 7 8 8 10 10 11 8 4 3 2 2 5 4 5 2 3 2 4 5 4 1 3 6 5 6 6 6 15 16 15
5 4 5 6 5 5 13 14 13 3 2 3 4 7 8 9 9 11 8 5 3 3 2 0 6 5 6 6 3 3 4 6 4 4 2 4 3 4 5 7 17 17 15
4 5 6 6 6 7 12 13 10 5 3 4 6 7 8 9 12 12 5 5 8 9 16 21 18 16 13 8 6 6 3 2 3 2 2 2 2 2 5 7 8 14 15
5 5 5 6 8 8 11 13 9 3 4 5 6 7 10 11 12 9 6 6 9 7 8 10 7 10 10 10 12 5 1 2 2 2 1 2 1 2 3 4 7 7 7
Wind_Direction
48 31 18 9 1 346 337 327 319 313 315 313 308 301 302 296 291 280 283 291 298 299 296 295 301 295 295 293 290 289 283 274 262 235 228 227 231 222 219 220 222 220 218
60 37 12 358 344 345 333 327 319 311 307 304 305 305 302 297 291 288 286 284 291 295 293 293 294 294 295 294 290 289 281 275 273 240 222 221 222 220 215 219 223 226 226
56 32 360 340 328 330 329 326 316 313 310 309 306 308 305 298 292 288 286 285 287 289 292 290 293 297 294 293 292 286 279 273 265 246 223 218 216 219 215 220 224 225 230
79 16 349 325 323 325 321 316 312 316 310 306 306 301 294 291 291 292 291 288 288 289 289 293 297 298 297 295 290 285 275 271 261 252 230 218 218 216 213 220 218 222 230
24 9 326 310 319 319 318 311 306 296 295 294 296 296 295 293 294 296 293 289 285 284 286 288 299 302 300 294 290 286 277 270 256 244 217 212 208 198 188 185 195 211 244
357 348 311 309 323 321 314 318 311 306 296 297 304 302 285 279 278 289 291 289 289 290 289 289 294 297 301 295 290 288 282 270 259 231 217 197 182 189 176 191 200 212 229
344 346 322 320 331 324 309 311 308 323 317 308 296 315 291 280 280 289 287 293 297 302 300 302 295 299 297 294 293 289 283 272 234 189 169 161 167 178 194 200 215 222 234
356 347 327 321 326 325 324 326 326 316 320 329 312 300 317 297 322 312 294 293 294 313 317 311 300 301 300 300 288 287 282 228 199 162 170 159 172 179 188 181 184 220 243
342 328 319 321 318 320 310 311 307 330 313 321 323 301 304 335 318 307 305 317 326 330 316 313 303 324 323 313 294 283 262 185 164 153 148 149 154 150 132 120 101 76 57
330 327 325 317 304 311 309 315 317 323 311 312 317 302 290 283 315 317 313 328 347 321 318 310 310 319 332 326 331 313 226 185 171 159 142 132 120 108 97 90 82 69 60
337 333 331 321 324 318 299 293 308 319 306 294 298 295 299 297 282 313 308 326 322 323 302 313 306 332 331 331 11 48 50 36 163 131 102 97 94 91 83 81 73 70 63
335 328 326 327 314 308 308 305 309 301 296 293 279 293 315 322 328 312 304 318 318 321 310 303 335 354 331 30 45 63 64 60 51 68 78 77 76 74 70 62 56 53 48
312 320 324 323 312 305 301 307 300 299 299 298 303 304 303 304 298 299 301 309 313 314 304 359 3 349 13 34 67 66 68 67 64 70 74 71 75 76 72 66 57 51 50
286 295 301 305 309 308 299 309 312 299 288 291 296 299 301 302 288 289 294 303 307 314 302 348 21 354 28 56 74 70 73 78 76 73 76 75 76 74 69 65 61 51 52
285 277 297 304 306 307 308 318 312 309 311 300 303 307 302 297 303 296 295 285 278 305 315 24 74 18 32 78 79 67 73 78 80 77 73 74 73 68 61 59 54 47 49
279 302 304 301 305 311 317 315 322 330 331 333 338 324 332 332 321 321 324 320 312 312 314 354 53 50 15 74 69 60 60 66 80 75 74 73 73 71 66 60 54 51 48
297 294 291 295 301 314 326 335 351 359 360 351 347 349 356 346 340 333 324 326 326 332 311 272 47 76 53 65 62 58 52 57 62 67 66 71 76 74 65 61 60 60 55
300 293 291 285 298 311 335 349 353 354 2 357 344 353 355 346 343 331 334 343 331 326 302 78 60 66 78 68 72 70 57 54 54 60 62 61 68 73 68 65 60 57 54
303 305 288 291 317 331 336 334 324 333 341 333 337 349 348 346 343 341 340 343 335 329 317 127 104 102 89 82 78 59 48 42 44 55 51 50 53 56 67 77 66 61 56
305 310 319 336 349 330 330 334 322 319 334 349 5 0 351 339 332 339 337 346 339 337 333 107 102 95 81 64 70 75 61 40 42 42 47 47 46 55 56 63 68 64 58
318 330 8 16 3 344 343 331 314 303 326 357 6 3 348 348 341 339 327 335 329 340 340 116 113 120 117 73 73 74 92 91 58 41 48 37 38 49 43 43 47 54 52
358 12 17 11 2 353 340 344 334 281 5 23 357 359 340 348 339 338 336 330 327 336 335 130 138 146 115 105 113 105 126 62 80 22 48 45 37 44 42 50 52 53 52
341 351 347 350 352 354 352 354 360 356 60 34 359 353 348 343 343 336 326 321 326 332 295 301 153 127 120 124 109 88 31 75 81 86 28 50 15 45 27 30 39 35 31
356 338 351 359 351 356 357 359 351 346 68 15 355 354 341 337 340 331 319 331 27 40 2 103 90 91 94 92 93 94 107 97 87 49 31 60 348 34 17 32 35 40 40
359 358 1 1 2 348 353 356 355 348 58 358 7 353 350 338 331 327 329 67 76 74 73 76 76 76 75 92 124 124 129 112 86 47 31 104 2 12 37 32 27 32 35
348 354 357 4 358 351 354 351 358 14 29 5 0 346 341 343 339 351 45 72 71 53 71 66 53 53 54 51 49 48 84 90 115 126 83 87 342 15 59 34 36 28 23